www.pogodaiklimat.ru
Время
(UTC), дата
07 10.11
08 10.11
09 10.11
10 10.11
11 10.11
12 10.11
13 10.11
14 10.11
15 10.11
16 10.11
17 10.11
18 10.11
20 10.11
21 10.11
22 10.11
23 10.11
00 11.11
01 11.11
02 11.11
03 11.11
04 11.11
05 11.11
06 11.11
07 11.11
08 11.11
09 11.11
10 11.11
11 11.11
12 11.11
13 11.11
14 11.11
15 11.11
16 11.11
17 11.11
18 11.11
19 11.11
20 11.11
21 11.11
22 11.11
23 11.11
00 12.11
01 12.11
02 12.11
03 12.11
04 12.11
05 12.11
06 12.11
07 12.11
08 12.11
09 12.11
10 12.11
11 12.11
12 12.11
13 12.11
14 12.11
15 12.11
16 12.11
17 12.11
18 12.11
19 12.11
20 12.11
21 12.11
22 12.11
23 12.11
00 13.11
01 13.11
02 13.11
03 13.11
04 13.11
05 13.11
06 13.11
07 13.11
08 13.11
09 13.11
10 13.11
11 13.11
12 13.11
13 13.11
14 13.11
15 13.11
16 13.11
17 13.11
18 13.11
19 13.11
21 13.11
00 14.11
01 14.11
02 14.11
03 14.11
04 14.11
05 14.11
06 14.11
07 14.11
08 14.11
09 14.11
10 14.11
11 14.11
12 14.11
13 14.11
14 14.11
15 14.11
16 14.11
17 14.11
18 14.11
19 14.11
20 14.11
21 14.11
22 14.11
23 14.11
00 15.11
01 15.11
02 15.11
03 15.11
04 15.11
05 15.11
06 15.11
07 15.11
08 15.11
09 15.11
10 15.11
11 15.11
12 15.11
13 15.11
14 15.11
15 15.11
16 15.11
17 15.11
18 15.11
19 15.11
20 15.11
21 15.11
22 15.11
23 15.11
00 16.11
01 16.11
02 16.11
03 16.11
04 16.11
05 16.11
06 16.11
07 16.11
08 16.11
09 16.11
10 16.11
11 16.11
12 16.11
13 16.11
14 16.11
15 16.11
16 16.11
17 16.11
18 16.11
19 16.11
20 16.11
21 16.11
22 16.11
23 16.11
00 17.11
01 17.11
02 17.11
03 17.11
05 17.11
06 17.11
07 17.11
Ветер
(напр.,м/с)
Видим. Явления Облачность Т
(С)
Тd
(С)
f
(%)
Тe
(С)
Тes
(С)
Комфортность P
(гПа)
Po
(гПа)
Тmin
(С)
Tmax
(С)
R
(мм)
R24
(мм)
S
(см)
В 7
{9}
н/о н/о -1.0 -5.4 72 -8 -8 очень
холодно
1016.8 1014.1
В 6
{8}
н/о н/о -0.7 -4.9 73 -7 -7 холодно 1017.1 1014.4
В 6
{8}
>70 км 1/1 1000 м
[Cu med, cong]
-0.4 -4.6 73 -7 -7 холодно 1016.9 1014.2
В 6
{9}
н/о н/о -0.1 -4.9 70 -6 -6 холодно 1016.7 1014.0
В 5
{8}
н/о н/о +0.1 -5.7 65 -6 -6 холодно 1016.4 1013.7
В 6
{9}
>70 км 1/1 1000 м
[Cu med, cong]
0.0 -4.8 70 -6 -6 холодно 1016.1 1013.4
СВ 6
{9}
н/о н/о 0.0 -5.7 65 -6 -6 холодно 1015.5 1012.8
СВ 5
{7}
н/о н/о -0.3 -5.2 69 -6 -6 холодно 1015.1 1012.4
В 6
{8}
>70 км 1/1 1000 м
[Cu med, cong]
-1.1 -4.7 77 -8 -8 очень
холодно
1014.8 1012.1
В 6
{9}
н/о н/о -1.5 -4.9 78 -8 -8 очень
холодно
1014.4 1011.7
СВ 7
{10}
н/о н/о -1.6 -4.5 81 -9 -9 очень
холодно
1014.0 1011.3
В 6
{10}
>70 км 1/1 1000 м
[Cu med, cong]
-1.6 -4.4 81 -9 -9 очень
холодно
1013.8 1011.0 -1.8 +0.3
В 7
{9}
н/о н/о -1.8 -4.6 81 -9 -9 очень
холодно
1012.6 1009.9
В 6
{10}
н/о н/о -1.6 -4.5 81 -9 -9 очень
холодно
1012.0 1009.3
В 5
{9}
н/о н/о -2.0 -4.9 81 -8 -8 очень
холодно
1011.4 1008.7
В 3
{7}
н/о н/о -3.4 -5.6 85 -9 -9 очень
холодно
1010.6 1007.9
ЮВ 3
{10}
н/о н/о -3.3 -6.4 79 -8 -8 очень
холодно
1010.2 1007.5
СВ 4
{7}
н/о н/о -3.1 -5.6 83 -9 -9 очень
холодно
1009.6 1006.8
ЮВ 1
{6}
н/о н/о -4.1 -7.3 78 -6 -6 холодно 1009.1 1006.4
ЮВ 4
{6}
н/о н/о -3.2 -6.3 79 -9 -9 очень
холодно
1008.4 1005.7
ЮВ 5
{6}
н/о н/о -3.0 -6.7 76 -10 -10 очень
холодно
1007.7 1005.0
ЮВ 5
{6}
н/о н/о -3.2 -6.3 79 -10 -10 очень
холодно
1007.1 1004.4
ЮВ 4
{7}
>70 км ясно -3.7 -6.8 79 -10 -10 очень
холодно
1006.4 1003.7 -5.5
СВ 3
{5}
н/о н/о -5.3 -8.5 78 -11 -11 очень
холодно
1006.2 1003.4
ЮВ 4
{5}
н/о н/о -3.1 -6.2 79 -9 -9 очень
холодно
1006.1 1003.4
ЮВ 6
{8}
>70 км 1/1 1000 м
[Cu med, cong]
-1.6 -5.8 73 -8 -8 очень
холодно
1005.7 1003.0
ЮВ 5
{9}
н/о н/о -0.6 -5.7 68 -6 -6 холодно 1005.3 1002.7
ЮВ 4
{7}
н/о н/о +0.1 -6.9 59 -5 -5 холодно 1004.9 1002.3
ЮВ 4
{9}
>70 км 1/1 1000 м
[Cu hum]
+0.5 -7.9 53 -4 -4 прохладно 1004.7 1002.1
ЮВ 4
{7}
н/о н/о +0.8 -8.4 50 -4 -4 прохладно 1004.4 1001.7
В 2
{4}
н/о н/о +0.5 -9.4 47 -2 -2 по сезону 1003.9 1001.3
ЮВ 2
{7}
>70 км 1/1 1000 м
[Cu hum]
-1.4 -8.8 57 -5 -5 холодно 1003.7 1001.0
З 1
{3}
н/о н/о -5.1 -9.5 71 -7 -7 холодно 1003.7 1001.0
ЮВ 4
{6}
н/о н/о -3.1 -7.3 73 -9 -9 очень
холодно
1003.7 1001.0
ЮВ 5
{7}
>70 км 1/1 1000 м
[Cu hum]
-2.4 -7.6 67 -9 -9 очень
холодно
1003.4 1000.7 -5.6 +0.9
ЮВ 4
{7}
н/о н/о -2.0 -7.1 68 -8 -8 очень
холодно
1003.4 1000.8
ЮВ 5
{7}
н/о н/о -2.2 -7.2 69 -8 -8 очень
холодно
1003.2 1000.6
ЮВ 4
{7}
н/о н/о -2.0 -7.4 67 -8 -8 очень
холодно
1003.0 1000.3
ЮВ 6
{9}
н/о н/о -1.6 -6.5 69 -8 -8 очень
холодно
1003.0 1000.3
ЮВ 7
{9}
н/о н/о -1.8 -6.9 68 -9 -9 очень
холодно
1002.7 1000.0
ЮВ 7
{9}
н/о н/о -1.9 -7.1 68 -9 -9 очень
холодно
1002.7 1000.1
ЮВ 7
{9}
н/о н/о -1.6 -7.2 66 -9 -9 очень
холодно
1002.4 999.8
ЮВ 7
{10}
н/о н/о -1.5 -7.5 64 -9 -9 очень
холодно
1002.0 999.4
ЮВ 6
{8}
н/о н/о -1.6 -7.6 64 -8 -8 очень
холодно
1001.7 999.0
ЮВ 5
{7}
н/о н/о -2.0 -8.0 63 -8 -8 очень
холодно
1001.2 998.5
ЮВ 2
{5}
н/о н/о -4.1 -8.4 72 -8 -8 очень
холодно
1000.6 997.9
СВ 2
{10}
>70 км 5/1 1000 м
[Cu med, cong Ci fib]
-3.7 -6.9 78 -8 -8 очень
холодно
1000.2 997.5 -4.6 -1.3
В 6
{7}
н/о н/о -1.2 -6.5 67 -8 -8 очень
холодно
1000.0 997.3
В 5
{8}
н/о н/о +0.2 -6.0 63 -5 -5 холодно 999.8 997.1
В 5
{7}
55 км 9/5 1000 м
[Sc Ac As Cs]
+0.6 -6.0 61 -5 -5 холодно 999.4 996.7
В 5
{7}
н/о н/о +0.8 -6.3 59 -5 -5 холодно 999.1 996.4
В 6
{8}
н/о н/о +1.2 -6.1 58 -5 -5 холодно 998.6 995.9
В 5
{8}
60 км 10/4 1500 м
[Sc Ac As Cs]
+1.4 -5.7 59 -4 -4 прохладно 998.0 995.4
В 4
{9}
н/о н/о +1.3 -6.2 57 -3 -3 прохладно 997.4 994.7
В 5
{8}
н/о н/о +1.5 -5.2 61 -4 -4 прохладно 996.7 994.0
В 6
{9}
60 км 9/0
[As op]
+1.7 -4.3 64 -4 -4 прохладно 996.1 993.5
В 5
{8}
н/о н/о +2.1 -4.4 62 -3 -3 прохладно 995.7 993.1
СВ 5
{7}
н/о н/о +2.3 -3.8 64 -3 -3 прохладно 995.2 992.6
СВ 5
{9}
55 км 10/0 2000 м
[As op]
+2.7 -2.8 67 -2 -2 по сезону 994.9 992.3 -3.9 +2.8
СВ 4
{6}
н/о н/о +2.8 -3.3 64 -2 -2 по сезону 995.0 992.3
В 3
{5}
н/о н/о +2.7 -2.6 68 -1 -1 по сезону 994.7 992.1
ЮВ 2
{4}
н/о н/о +1.8 -2.7 72 -1 -1 по сезону 995.0 992.3
Ю 2
{2}
н/о н/о +2.0 -2.7 71 -1 -1 по сезону 995.0 992.4
Ю 2
{3}
н/о н/о +2.3 -1.8 74 -1 -1 по сезону 994.9 992.3
Ю 2
{6}
н/о н/о +3.0 -1.3 73 0 0 по сезону 995.3 992.6
Ю 2
{3}
н/о н/о +2.5 -1.3 76 -1 -1 по сезону 995.3 992.7
Ю 2
{3}
н/о н/о +2.3 -0.9 79 -1 -1 по сезону 995.2 992.6
Ю 2
{2}
н/о н/о +2.7 -0.4 80 -0 -0 по сезону 995.1 992.4
Ю 1
{3}
н/о н/о +2.0 -0.2 85 0 0 по сезону 995.0 992.4
СЗ 1
{3}
н/о н/о +2.6 +0.5 86 +1 +1 по сезону 995.4 992.7
С 2
{5}
25 км слаб. дождь 10/8 300 м
[Sc As op]
+2.2 +0.9 91 -1 -1 по сезону 995.7 993.0 +1.1 +3.2 0.1 0.1
СЗ 2
{4}
н/о н/о +1.7 +0.6 92 -2 -2 по сезону 995.8 993.2
СЗ 2
{3}
н/о н/о +1.7 +0.6 92 -2 -2 по сезону 996.1 993.5
СВ 2
{3}
30 км в посл. час дождь 10/8 300 м
[Sc Ac As]
+1.8 +0.6 92 -2 -2 по сезону 996.4 993.8
СЗ 1
{3}
н/о н/о +2.2 +1.0 92 0 0 по сезону 996.8 994.1
СВ 2
{4}
н/о н/о +2.3 +0.8 90 -1 -1 по сезону 996.7 994.1
В 4
{6}
20 км в посл. час дождь 10/8 300 м
[Sc Ac As]
+2.4 +1.2 92 -3 -3 прохладно 996.9 994.3
В 4
{6}
н/о н/о +2.5 +1.3 92 -2 -2 по сезону 997.0 994.4
В 3
{5}
н/о н/о +2.5 +0.7 88 -2 -2 по сезону 997.4 994.7
В 3
{5}
30 км слаб. дождь 10/8 300 м
[Sc Ac As]
+2.1 +0.2 87 -2 -2 по сезону 997.5 994.9
В 3
{5}
н/о н/о +2.1 +0.6 90 -2 -2 по сезону 998.0 995.4
В 2
{4}
н/о н/о +1.5 +0.5 93 -2 -2 по сезону 998.5 995.8
ЮВ 2
{6}
30 км слаб. дождь 10/8 300 м
[Sc Ac As]
+1.7 +0.8 94 -2 -2 по сезону 998.9 996.3 +1.4 +2.7
ЮВ 2
{7}
н/о н/о +1.8 +1.1 95 -2 -2 по сезону 999.4 996.8
ЮЗ 2
{4}
н/о н/о +1.9 +1.2 95 -2 -2 по сезону 1000.2 997.6
Ю 1
{7}
н/о н/о +1.5 +0.9 96 -1 -1 по сезону 1001.3 998.7
ЮЗ 1
{2}
н/о н/о +1.3 +0.7 96 -1 -1 по сезону 1001.6 998.9
СЗ 1
{1}
н/о н/о +1.2 +0.8 97 -1 -1 по сезону 1001.9 999.3
штиль 0
{2}
н/о н/о +0.9 +0.6 98 -1 -1 по сезону 1002.3 999.6
ЮВ 2
{3}
н/о н/о +1.6 +1.2 97 -2 -2 по сезону 1002.6 1000.0
ЮВ 4
{6}
н/о н/о +2.3 +1.6 95 -3 -3 прохладно 1002.8 1000.2
ЮВ 3
{6}
55 км {дождь} 9/5 200 м
[Cu med, cong Ac cuf]
+2.4 +1.7 95 -2 -2 по сезону 1003.2 1000.6 +0.6 +2.6 6 5.6
ЮВ 4
{7}
н/о н/о +2.6 +1.7 94 -2 -2 по сезону 1003.7 1001.1
ЮВ 4
{5}
н/о н/о +2.6 +1.7 94 -2 -2 по сезону 1004.6 1002.0
ЮВ 4
{9}
65 км 5/1 300 м
[Cu med, cong Ac trans]
+3.0 +1.7 91 -2 -2 по сезону 1005.3 1002.7
ЮВ 3
{8}
н/о н/о +3.0 +1.2 88 -1 -1 по сезону 1006.0 1003.3
ЮВ 3
{4}
н/о н/о +3.5 +1.2 85 -0 -0 по сезону 1006.7 1004.1
ЮВ 4
{9}
65 км 6/3 300 м
[Cu med, cong Ac trans]
+4.8 +0.9 76 +1 +1 по сезону 1006.9 1004.2
ЮВ 4
{5}
н/о н/о +4.4 +1.4 81 0 0 по сезону 1007.5 1004.9
Ю 4
{6}
н/о н/о +4.0 +1.2 82 -0 -0 по сезону 1008.1 1005.4
Ю 4
{6}
65 км 4/1 1000 м
[Cu med, cong Ac cuf]
+3.1 +0.7 84 -2 -2 по сезону 1009.0 1006.3
Ю 4
{8}
н/о н/о +2.7 +0.4 85 -2 -2 по сезону 1009.8 1007.1
Ю 3
{6}
н/о н/о +2.6 +0.3 85 -2 -2 по сезону 1010.7 1008.0
Ю 4
{9}
70 км 6/3 1000 м
[Cu med, cong Ac cuf Ci fib]
+2.5 +0.2 85 -2 -2 по сезону 1011.5 1008.9 +2.2 +5.1
Ю 4
{9}
н/о н/о +2.4 +0.3 86 -3 -3 прохладно 1012.4 1009.8
Ю 4
{9}
н/о н/о +2.3 -0.4 82 -3 -3 прохладно 1013.2 1010.5
ЮВ 4
{12}
н/о н/о +2.5 -0.6 80 -2 -2 по сезону 1014.0 1011.3
Ю 5
{8}
н/о н/о +2.7 -0.9 77 -3 -3 прохладно 1014.6 1012.0
Ю 5
{7}
н/о н/о +2.7 -1.1 76 -3 -3 прохладно 1015.6 1013.0
Ю 5
{12}
н/о н/о +2.5 -1.1 77 -3 -3 прохладно 1016.4 1013.8
ЮВ 5
{7}
н/о н/о +2.7 -1.1 76 -3 -3 прохладно 1017.2 1014.5
ЮВ 4
{6}
н/о н/о +1.9 -1.5 78 -3 -3 прохладно 1017.5 1014.8
Ю 5
{7}
н/о н/о +2.4 -1.7 74 -3 -3 прохладно 1017.9 1015.2
ЮВ 5
{7}
н/о н/о +2.2 -1.2 78 -3 -3 прохладно 1018.4 1015.7
ЮВ 5
{7}
н/о н/о +2.0 -1.8 76 -3 -3 прохладно 1018.9 1016.2
ЮВ 6
{8}
>70 км 1/1 1000 м
[Cu med, cong Ac cuf]
+2.2 -1.8 75 -4 -4 прохладно 1019.3 1016.6 +1.7 +3.0
ЮВ 5
{8}
н/о н/о +2.3 -1.8 74 -3 -3 прохладно 1020.3 1017.6
ЮВ 6
{8}
н/о н/о +2.6 -1.7 73 -3 -3 прохладно 1020.6 1018.0
ЮВ 5
{8}
>70 км 3/1 1000 м
[Cu med, cong Ac cuf]
+3.0 -2.1 69 -2 -2 по сезону 1021.1 1018.4
ЮВ 5
{10}
н/о н/о +4.1 -2.3 63 -0 -0 по сезону 1021.6 1018.9
ЮВ 5
{6}
н/о н/о +4.0 -2.0 65 -1 -1 по сезону 1021.6 1018.9
ЮВ 5
{10}
>70 км 4/1 1000 м
[Cb calv Ac cuf]
+4.4 -2.0 63 -0 0 по сезону 1021.7 1019.1
ЮВ 4
{7}
н/о н/о +3.9 -2.5 63 -0 -0 по сезону 1021.9 1019.2
ЮВ 4
{6}
н/о н/о +3.8 -1.1 70 -0 -0 по сезону 1021.8 1019.1
Ю 4
{7}
>70 км 3/1 1000 м
[Cu med, cong Ac lent]
+2.3 -1.8 74 -2 -2 по сезону 1021.6 1018.9
ЮВ 4
{8}
н/о н/о +2.2 -1.9 74 -3 -3 прохладно 1021.6 1018.9
ЮВ 4
{10}
н/о н/о +1.2 -2.9 74 -4 -4 прохладно 1021.6 1018.9
ЮВ 3
{10}
>70 км 4/1 1000 м
[Cu med, cong Ac cuf Ci fib]
+1.5 -2.4 75 -3 -3 прохладно 1021.3 1018.6 +1.1 +4.5
ЮВ 4
{6}
н/о н/о +2.0 -1.9 75 -3 -3 прохладно 1021.0 1018.3
ЮВ 3
{9}
н/о н/о +1.5 -2.6 74 -3 -3 прохладно 1020.6 1017.9
СВ 2
{6}
н/о н/о -0.2 -2.2 86 -4 -4 прохладно 1019.9 1017.2
ЮВ 3
{5}
н/о н/о +0.7 -2.3 80 -4 -4 прохладно 1019.1 1016.4
ЮВ 2
{5}
н/о н/о +0.4 -1.8 85 -3 -3 прохладно 1018.6 1015.9
В 2
{9}
н/о н/о +0.4 -1.3 88 -3 -3 прохладно 1018.2 1015.5
В 3
{6}
н/о н/о +0.9 -1.6 83 -4 -4 прохладно 1017.4 1014.7
В 1
{5}
н/о н/о +0.8 -1.6 84 -1 -1 по сезону 1017.1 1014.4
В 5
{8}
н/о н/о +2.5 -1.8 73 -3 -3 прохладно 1016.4 1013.8
В 4
{7}
н/о н/о +2.6 -1.7 73 -2 -2 по сезону 1015.8 1013.1
В 3
{8}
н/о н/о +1.2 -2.7 75 -3 -3 прохладно 1015.0 1012.3
В 4
{8}
>70 км 3/0
[Ac lent Ci fib]
+0.6 -2.6 79 -5 -5 холодно 1014.4 1011.8 -1.2 +3.4
СВ 5
{6}
н/о н/о +1.7 -3.5 68 -4 -4 прохладно 1014.2 1011.5
В 4
{8}
н/о н/о +1.0 -3.5 72 -4 -4 прохладно 1013.8 1011.1
ЮВ 2
{6}
45 км 1/0
[Ac lent Ci fib]
-1.4 -3.8 84 -5 -5 холодно 1013.5 1010.8
Ю 3
{9}
н/о н/о +2.8 -3.1 65 -1 -1 по сезону 1013.3 1010.6
ЮВ 3
{7}
н/о н/о +3.8 -3.4 59 +1 +1 по сезону 1012.4 1009.7
В 2
{9}
>70 км 1/0
[Ac As]
+4.5 -2.6 60 +2 +3 по сезону 1011.7 1009.1
В 3
{4}
н/о н/о +3.7 -2.0 66 0 0 по сезону 1011.5 1008.8
В 2
{3}
н/о н/о +3.8 -1.9 66 +1 +1 по сезону 1010.7 1008.1
СВ 4
{5}
>70 км 1/0
[]
+1.3 -2.3 77 -4 -4 прохладно 1010.5 1007.8
В 4
{5}
н/о н/о +1.5 -1.9 78 -3 -3 прохладно 1010.0 1007.3
СВ 4
{6}
н/о н/о +1.4 -2.5 75 -4 -4 прохладно 1009.7 1007.1
В 4
{6}
>70 км 3/0
[Cs]
+0.4 -3.7 74 -5 -5 холодно 1009.1 1006.5 -1.8 +4.8
В 4
{7}
н/о н/о +1.3 -2.4 76 -4 -4 прохладно 1008.7 1006.0
СВ 7
{9}
н/о н/о +0.8 -2.7 77 -6 -6 холодно 1008.2 1005.5
СВ 5
{8}
н/о н/о +2.5 -0.9 78 -3 -3 прохладно 1007.6 1005.0
СВ 4
{8}
н/о н/о +2.6 -2.1 71 -2 -2 по сезону 1007.1 1004.5
В 4
{7}
н/о н/о +2.6 -2.1 71 -2 -2 по сезону 1006.8 1004.1
З 1
{9}
н/о н/о -0.3 -2.7 84 -2 -2 по сезону 1006.8 1004.1
СВ 3
{5}
н/о н/о -1.7 -3.0 91 -7 -7 холодно 1006.4 1003.7
СВ 1
{3}
н/о н/о -1.0 -2.3 91 -3 -3 прохладно 1006.5 1003.8
ЮЗ 2
{2}
н/о н/о -0.1 -1.2 92 -4 -4 прохладно 1006.5 1003.9
Ю 2
{3}
н/о н/о +0.9 -0.5 90 -3 -3 прохладно 1007.0 1004.4
Ю 2
{5}
>70 км 9/0
[Ac As]
+1.1 -0.3 90 -2 -2 по сезону 1007.4 1004.8 -2.0 +2.8
Ю 3
{6}
н/о н/о +2.7 -0.2 81 -1 -1 по сезону 1008.1 1005.4
Местоположение метеостанции Олесунн (Норвегия): широта 62.57 долгота 6.12 высота над уровнем моря 22 м.
В архиве по умолчанию представлена погода в Олесунне за последнюю неделю. Архивные данные за месяц целиком и за предыдущие месяцы, начиная с января 2011 года, Вы можете получить, выбрав интересующий диапазон дат из раскрывающегося списка и нажав кнопку "Найти!".
*Определитесь, кто Вы:
Внимание! Время в таблицах - всемирное. Для получения местного времени необходимо прибавить поправку, которая равна 1 ч.
Смотрите также архив погоды в соседних городах и на ближайших метеорологических станциях:
Партнеры нашего сайта:      
Пояснения к столбцам:
  • Ветер - указаны скорость ветра в м/с - средняя за 10 мин, порывы в срок и между сроками (в фигурных скобках) и направление, откуда дует ветер: С - северный,
  • СВ - северо-восточный, В - восточный, ЮВ - юго-восточный, Ю - южный, ЮЗ - юго-западный, З - западный, СЗ - северо-западный.
  • Видимость - горизонтальная дальность видимости в метрах или километрах. При видимости от 1 до 10 км при отсутствии осадков обычно наблюдается дымка, при ухудшении видимости до 1 км и менее - туман. В сухую погоду видимость может ухудшаться дымом, пылью или мглою.
  • Явления - указаны атмосферные явления, наблюдавшиеся в срок или в последний час перед сроком; фигурными скобками обозначены явления, наблюдавшиеся между сроками (за 1-3 часа до срока); квадратными скобками обозначены град или гололедные отложения с указанием их диаметра в мм.
  • Облачность - указаны через наклонную черту общая и нижняя облачность в баллах и высота нижней границы облаков в метрах; квадратными скобками обозначены формы облаков: Ci - перистые, Cs - перисто-слоистые, Cc - перисто-кучевые, Ac - высококучевые, As - высокослоистые, Sc - слоисто-кучевые, Ns - слоисто-дождевые, Cu - кучевые, Cb - кучево-дождевые. Подробнее классификацию облаков см. в Атласе облаков (PDF).
  • T - Температура воздуха - температура, измеренная на высоте 2 м над землей.
  • Td - Температура точки росы - температура, при понижении до которой содержащийся в воздухе водяной пар достигнет насыщения.
  • f - Относительная влажность воздуха - влажноcть воздуха, измеренная на высоте 2 м над землей.
  • Te - Эффективная температура - температура, которую ощущает одетый по сезону человек в тени. Характеристика душности погоды. При расчете учитывается влияние влажности воздуха и скорости ветра на теплоощущения человека.
  • Tes - Эффективная температура на солнце - температура, которую ощущает человек, с поправкой на солнечный нагрев. Характеристика знойности погоды. Зависит от высоты солнца над горизонтом, облачности и скорости ветра. Ночью, в пасмурную погоду, а также при ветре 12 м/с и более поправка равна нулю.
  • P - Атмосферное давление - приведенное к уровню моря атмосферное давление.
  • Po - Атмосферное давление - измеренное на уровне метеостанции атмосферное давление.
  • Tmin - Минимальная температура - минимум температуры воздуха на высоте 2 м над землей.
  • Tmax - Максимальная температура - максимум температуры воздуха на высоте 2 м над землей.
  • R - Количество осадков - Количество выпавших осадков за период времени, мм. При наведении курсора мыши на число - период времени, за который выпало указанное количество осадков.
  • R24 - Количество осадков - Количество выпавших осадков за 24 часа, мм.
  • S - Снежный покров - Высота снежного покрова, см. При наведении курсора мыши на число - состояние снежного покрова и степень покрытия местности в баллах.